📊 Raw Sensor Data

Showing records 37151 to 37175 of 84,908 total

ID Distance (ft) Battery V Battery A Int Temp (°F) Int Humid (%) Ext Temp (°F) Solar V RSSI SNR Time Stamp
47770 15.7 3.93 0 75 42 79 5.10 -68 8 07/30/2025 10:15 AM
47769 15.6 4.04 0 74 42 78 5.10 -70 8 07/30/2025 10:00 AM
47768 15.9 3.93 0 72 43 74 5.10 -71 7 07/30/2025 09:45 AM
47767 15.6 3.93 0 70 43 70 5.10 -68 7 07/30/2025 09:30 AM
47766 15.6 4.01 0 70 43 70 5.10 -69 8 07/30/2025 09:15 AM
47765 15.6 3.93 0 68 44 72 5.10 -71 8 07/30/2025 09:00 AM
47764 15.6 3.93 0 67 44 69 5.10 -71 8 07/30/2025 08:45 AM
47763 15.6 3.93 0 66 44 69 5.10 -69 8 07/30/2025 08:30 AM
47762 15.6 3.93 0 65 43 69 5.10 -70 8 07/30/2025 08:15 AM
47761 15.6 3.93 0 64 43 68 5.10 -70 7 07/30/2025 08:00 AM
47760 15.5 3.95 25 61 42 67 4.50 -71 8 07/30/2025 07:30 AM
47759 15.4 3.88 5 57 43 63 4.50 -71 8 07/30/2025 07:00 AM
47758 15.3 3.87 0 55 43 57 4.50 -71 7 07/30/2025 06:45 AM
47757 15.3 3.91 -8 55 43 56 4.50 -69 8 07/30/2025 06:30 AM
47756 15.3 3.91 -10 55 43 56 4.30 -71 8 07/30/2025 06:15 AM
47755 15.3 3.86 -5 55 44 57 1.80 -71 8 07/30/2025 06:00 AM
47754 15.3 3.86 -5 55 44 57 0.00 -71 8 07/30/2025 05:45 AM
47753 15.3 3.86 -5 55 44 57 0.00 -70 8 07/30/2025 05:30 AM
47752 15.3 3.86 -5 55 44 57 0.00 -70 8 07/30/2025 05:15 AM
47751 15.3 3.86 -5 55 44 57 0.00 -71 8 07/30/2025 05:00 AM
47750 15.3 3.93 -5 55 44 57 0.00 -72 7 07/30/2025 04:45 AM
47749 15.4 3.93 -5 55 44 57 0.00 -70 8 07/30/2025 04:30 AM
47748 15.3 3.93 -5 55 44 57 0.00 -70 8 07/30/2025 04:15 AM
47747 15.3 3.87 -5 55 44 57 0.00 -70 8 07/30/2025 04:00 AM
47746 15.3 3.87 -5 55 44 57 0.10 -70 7 07/30/2025 03:45 AM